| time (UTC) | temp F | wind direction | speed knots | gust knots | rain 1hr in | rain 24hr in | rain mn in | humidity % | barometer mb |
| 20260505111524 | 40 | 141 | 0.0 | 0.0 | 0.00 | 0.00 | 0.00 | 76 | 1015.2 |
| 20260505101531 | 41 | 47 | 0.0 | 0.9 | 0.00 | 0.00 | 0.00 | 73 | 1015.1 |
| 20260505100024 | 41 | 125 | 0.0 | 1.7 | 0.00 | 0.00 | 0.00 | 73 | 1015.1 |
| 20260505094523 | 42 | 273 | 0.0 | 0.0 | 0.00 | 0.00 | 0.00 | 69 | 1015.0 |
| 20260505093034 | 42 | 260 | 0.0 | 0.9 | 0.00 | 0.00 | 0.00 | 70 | 1015.1 |
| 20260505091503 | 42 | 270 | 0.9 | 2.6 | 0.00 | 0.00 | 0.00 | 66 | 1015.1 |
| 20260505090003 | 42 | 282 | 0.0 | 1.7 | 0.00 | 0.00 | 0.00 | 64 | 1015.2 |
| 20260505084502 | 42 | 256 | 0.9 | 3.5 | 0.00 | 0.00 | 0.00 | 66 | 1015.2 |
| 20260505083008 | 43 | 75 | 0.0 | 0.0 | 0.00 | 0.00 | 0.00 | 65 | 1015.3 |
| 20260505081507 | 43 | 293 | 0.0 | 0.9 | 0.00 | 0.00 | 0.00 | 67 | 1015.2 |
| 20260505080003 | 43 | 30 | 0.0 | 2.6 | 0.00 | 0.00 | 0.00 | 66 | 1015.4 |
| 20260505074502 | 43 | 2 | 0.0 | 1.7 | 0.00 | 0.00 | 0.00 | 65 | 1015.5 |
| 20260505073005 | 43 | 183 | 0.0 | 0.9 | 0.00 | 0.00 | 0.00 | 65 | 1015.4 |
| 20260505071507 | 44 | 285 | 1.7 | 2.6 | 0.00 | 0.00 | 0.00 | 62 | 1015.4 |
| 20260505070006 | 45 | 353 | 0.0 | 1.7 | 0.00 | 0.00 | 0.00 | 60 | 1015.4 |
| 20260505064504 | 46 | 262 | 0.9 | 0.9 | 0.00 | 0.00 | 0.00 | 61 | 1015.4 |
| 20260505063005 | 47 | 255 | 0.9 | 1.7 | 0.00 | 0.00 | 0.00 | 58 | 1015.2 |
| 20260505061508 | 48 | 274 | 0.9 | 2.6 | 0.00 | 0.00 | 0.00 | 58 | 1015.2 |
| 20260505060006 | 48 | 303 | 0.9 | 3.5 | 0.00 | 0.00 | 0.00 | 58 | 1015.1 |
| 20260505054508 | 48 | 334 | 1.7 | 1.7 | 0.00 | 0.00 | 0.00 | 55 | 1015.1 |
| 20260505053003 | 49 | 65 | 0.0 | 0.9 | 0.00 | 0.00 | 0.00 | 52 | 1015.0 |
| 20260505051512 | 49 | 284 | 0.0 | 2.6 | 0.00 | 0.00 | 0.00 | 53 | 1015.1 |
| 20260505041511 | 52 | 281 | 1.7 | 10.4 | 0.00 | 0.00 | 0.00 | 40 | 1014.6 |
| 20260505040010 | 53 | 327 | 2.6 | 10.4 | 0.00 | 0.00 | 0.00 | 41 | 1014.3 |
| 20260505034513 | 53 | 97 | 4.3 | 11.3 | 0.00 | 0.00 | 0.00 | 40 | 1014.2 |
| 20260505033011 | 54 | 75 | 5.2 | 11.3 | 0.00 | 0.00 | 0.00 | 39 | 1014.0 |
| 20260505031516 | 54 | 169 | 5.2 | 11.3 | 0.00 | 0.00 | 0.00 | 40 | 1013.8 |
| 20260505030013 | 54 | 183 | 1.7 | 11.3 | 0.00 | 0.00 | 0.00 | 40 | 1013.7 |
| 20260505024510 | 54 | 122 | 4.3 | 9.6 | 0.00 | 0.00 | 0.00 | 40 | 1013.6 |
| 20260505023009 | 55 | 332 | 3.5 | 15.6 | 0.00 | 0.00 | 0.00 | 39 | 1013.6 |
| 20260505021514 | 56 | 131 | 1.7 | 11.3 | 0.00 | 0.00 | 0.00 | 39 | 1013.5 |
| 20260505020014 | 57 | 89 | 3.5 | 8.7 | 0.00 | 0.00 | 0.00 | 39 | 1013.5 |
| 20260505014514 | 57 | 22 | 2.6 | 7.0 | 0.00 | 0.00 | 0.00 | 40 | 1013.4 |
| 20260505013008 | 57 | 8 | 4.3 | 13.9 | 0.00 | 0.00 | 0.00 | 40 | 1013.3 |
| 20260505011516 | 58 | 22 | 3.5 | 9.6 | 0.00 | 0.00 | 0.00 | 39 | 1013.5 |
| 20260505010017 | 59 | 325 | 2.6 | 7.8 | 0.00 | 0.00 | 0.00 | 38 | 1013.6 |
| 20260505004520 | 60 | 102 | 5.2 | 10.4 | 0.00 | 0.00 | 0.00 | 37 | 1013.3 |
| 20260505003022 | 60 | 106 | 4.3 | 14.8 | 0.00 | 0.00 | 0.00 | 38 | 1013.5 |
| 20260505001509 | 61 | 72 | 3.5 | 7.8 | 0.00 | 0.00 | 0.00 | 38 | 1013.5 |
| 20260505000005 | 60 | 79 | 5.2 | 10.4 | 0.00 | 0.00 | 0.00 | 39 | 1013.4 |
| 20260504234504 | 60 | 348 | 4.3 | 11.3 | 0.00 | 0.00 | 0.00 | 39 | 1013.4 |
| 20260504233006 | 61 | 98 | 3.5 | 12.2 | 0.00 | 0.00 | 0.00 | 39 | 1013.4 |
| 20260504231507 | 62 | 161 | 5.2 | 15.6 | 0.00 | 0.00 | 0.00 | 39 | 1013.4 |
| 20260504230012 | 62 | 103 | 4.3 | 12.2 | 0.00 | 0.00 | 0.00 | 38 | 1013.2 |
| 20260504224503 | 62 | 56 | 7.0 | 10.4 | 0.00 | 0.00 | 0.00 | 38 | 1013.1 |
| 20260504223003 | 61 | 47 | 4.3 | 14.8 | 0.00 | 0.00 | 0.00 | 39 | 1013.2 |
| 20260504221507 | 61 | 81 | 6.1 | 12.2 | 0.00 | 0.00 | 0.00 | 39 | 1013.2 |
| 20260504220009 | 62 | 97 | 2.6 | 7.0 | 0.00 | 0.00 | 0.00 | 39 | 1013.2 |
| 20260504214514 | 61 | 100 | 4.3 | 7.0 | 0.00 | 0.00 | 0.00 | 37 | 1013.3 |
| 20260504213020 | 61 | 332 | 0.9 | 9.6 | 0.00 | 0.00 | 0.00 | 35 | 1013.2 |
| 20260504211503 | 62 | 87 | 0.9 | 10.4 | 0.00 | 0.00 | 0.00 | 35 | 1013.2 |
| 20260504210005 | 63 | 113 | 5.2 | 10.4 | 0.00 | 0.00 | 0.00 | 36 | 1013.2 |
| 20260504204525 | 63 | 226 | 0.9 | 5.2 | 0.00 | 0.00 | 0.00 | 39 | 1013.2 |
| 20260504203023 | 62 | 75 | 0.9 | 8.7 | 0.00 | 0.00 | 0.00 | 36 | 1013.2 |
| 20260504201522 | 62 | 110 | 3.5 | 10.4 | 0.00 | 0.00 | 0.00 | 35 | 1013.4 |
| 20260504200005 | 63 | 96 | 5.2 | 8.7 | 0.00 | 0.00 | 0.00 | 37 | 1013.2 |
| 20260504194508 | 63 | 120 | 3.5 | 7.0 | 0.00 | 0.00 | 0.00 | 39 | 1013.2 |
| 20260504193017 | 63 | 119 | 1.7 | 3.5 | 0.00 | 0.00 | 0.00 | 36 | 1013.4 |
| 20260504191524 | 62 | 4 | 1.7 | 5.2 | 0.00 | 0.00 | 0.00 | 36 | 1013.5 |
| 20260504190021 | 62 | 119 | 4.3 | 11.3 | 0.00 | 0.00 | 0.00 | 39 | 1013.6 |
| 20260504184505 | 62 | 342 | 2.6 | 10.4 | 0.00 | 0.00 | 0.00 | 35 | 1013.7 |
| 20260504183012 | 61 | 91 | 3.5 | 7.8 | 0.00 | 0.00 | 0.00 | 39 | 1013.8 |
| 20260504181517 | 61 | 95 | 4.3 | 13.9 | 0.00 | 0.00 | 0.00 | 38 | 1013.8 |
| 20260504180021 | 61 | 101 | 7.8 | 12.2 | 0.00 | 0.00 | 0.00 | 38 | 1013.8 |
| 20260504174524 | 62 | 86 | 3.5 | 9.6 | 0.00 | 0.00 | 0.00 | 40 | 1013.9 |
| 20260504173008 | 61 | 155 | 3.5 | 7.8 | 0.00 | 0.00 | 0.00 | 40 | 1013.9 |
| 20260504171513 | 61 | 215 | 1.7 | 6.1 | 0.00 | 0.00 | 0.00 | 40 | 1013.9 |